QPF
0.00 0.00 0.00 0.00 0.00 0.00 0.00 0.00 0.00 0.00 0.00 0.00 0.00 0.00 0.00 0.00 0.00 0.00 0.00 0.00 0.00 0.00 0.00 0.00 0.00 0.00 0.00 0.00 0.00 0.00 0.00 0.00 0.00 0.00 0.00 0.00 0.00 0.00 0.00 0.00 0.00 0.00 0.00 0.00 0.00 0.00 0.00 0.00 0.00
0.00 0.00 0.00 0.00 0.00 0.00 0.00 0.00 0.00 0.00 0.00 0.00 0.00 0.00 0.00 0.00 0.00 0.00 0.00 0.00 0.00 0.00 0.00 0.00 0.00 0.00 0.00 0.00 0.00 0.00 0.00 0.00 0.00 0.00 0.00 0.00 0.00 0.00 0.00 0.00 0.00 0.00 0.00 0.00 0.00 0.00 0.00 0.00 0.00
0.00 0.00 0.00 0.00 0.00 0.00 0.00 0.00 0.00 0.00 0.00 0.00 0.00 0.00 0.00 0.00 0.00 0.00 0.00 0.00 0.00 0.00 0.00 0.00 0.00 0.00 0.00 0.00 0.00 0.00 0.00 0.00 0.00 0.00 0.00 0.00 0.00 0.00 0.00 0.00 0.00 0.00 0.00 0.00 0.00 0.00 0.00 0.00 0.00
0.00 0.00 0.00 0.00 0.00 0.00 0.00 0.00 0.00 0.00 0.00 0.00 0.00 0.00 0.00 0.00 0.00 0.00 0.00 0.00 0.00 0.00 0.00 0.00 0.00 0.00 0.00 0.00 0.00 0.00 0.00 0.00 0.00 0.00 0.00 0.00 0.00 0.00 0.00 0.00 0.00 0.00 0.00 0.00 0.00 0.00 0.00 0.00 0.00
0.00 0.00 0.00 0.00 0.00 0.00 0.00 0.00 0.00 0.00 0.00 0.00 0.00 0.00 0.00 0.00 0.00 0.00 0.00 0.00 0.00 0.00 0.00 0.00 0.00 0.00 0.00 0.00 0.00 0.00 0.00 0.00 0.00 0.00 0.00 0.00 0.00 0.00 0.00 0.00 0.00 0.00 0.00 0.00 0.00 0.00 0.00 0.00 0.00
0.00 0.00 0.00 0.00 0.00 0.00 0.00 0.00 0.00 0.00 0.00 0.00 0.00 0.00 0.00 0.00 0.00 0.00 0.00 0.00 0.00 0.00 0.00 0.00 0.00 0.00 0.00 0.00 0.00 0.00 0.00 0.00 0.00 0.00 0.00 0.00 0.00 0.00 0.00 0.00 0.00 0.00 0.00 0.00 0.00 0.00 0.00 0.00 0.00
0.00 0.00 0.00 0.00 0.00 0.00 0.00 0.00 0.00 0.00 0.00 0.00 0.00 0.00 0.00 0.00 0.00 0.00 0.00 0.00 0.00 0.00 0.00 0.00 0.00 0.00 0.00 0.00 0.00 0.00 0.00 0.00 0.00 0.00 0.00 0.00 0.00 0.00 0.00 0.00 0.00 0.00 0.00 0.00 0.00 0.00 0.00 0.00 0.00
0.00 0.00 0.00 0.00 0.00 0.00 0.00 0.00 0.00 0.00 0.00 0.00 0.00 0.00 0.00 0.00 0.00 0.00 0.00 0.00 0.00 0.00 0.00 0.00 0.00 0.00 0.00 0.00 0.00 0.00 0.00 0.00 0.00 0.00 0.00 0.00 0.00 0.00 0.00 0.00 0.00 0.00 0.00 0.00 0.00 0.00 0.00 0.00 0.00
0.00 0.00 0.00 0.00 0.00 0.00 0.00 0.00 0.00 0.00 0.00 0.00 0.00 0.00 0.00 0.00 0.00 0.00 0.00 0.00 0.00 0.00 0.00 0.00 0.00 0.00 0.00 0.00 0.00 0.00 0.00 0.00 0.00 0.00 0.00 0.00 0.00 0.00 0.00 0.00 0.00 0.00 0.00 0.00 0.00 0.00 0.00 0.00 0.00
0.00 0.00 0.00 0.00 0.00 0.00 0.00 0.00 0.00 0.00 0.00 0.00 0.00 0.00 0.00 0.00 0.00 0.00 0.00 0.00 0.00 0.00 0.00 0.00 0.00 0.00 0.00 0.00 0.00 0.00 0.00 0.00 0.00 0.00 0.00 0.00 0.00 0.00 0.00 0.00 0.00 0.00 0.00 0.00 0.00 0.00 0.00 0.00 0.00
0.00 0.00 0.00 0.00 0.00 0.00 0.00 0.00 0.00 0.00 0.00 0.00 0.00 0.00 0.00 0.00 0.00 0.00 0.00 0.00 0.00 0.00 0.00 0.00 0.00 0.00 0.00 0.00 0.00 0.00 0.00 0.00 0.00 0.00 0.00 0.00 0.00 0.00 0.00 0.00 0.00 0.00 0.00 0.00 0.00 0.00 0.00 0.00 0.00
0.00 0.00 0.00 0.00 0.00 0.00 0.00 0.00 0.00 0.00 0.00 0.00 0.00 0.00 0.00 0.00 0.00 0.00 0.00 0.00 0.00 0.00 0.00 0.00 0.00 0.00 0.00 0.00 0.00 0.00 0.00 0.00 0.00 0.00 0.00 0.00 0.00 0.00 0.00 0.00 0.00 0.00 0.00 0.00 0.00 0.00 0.00 0.00 0.00
0.00 0.00 0.00 0.00 0.00 0.00 0.00 0.00 0.00 0.00 0.00 0.00 0.00 0.00 0.00 0.00 0.00 0.00 0.00 0.00 0.00 0.00 0.00 0.00 0.00 0.00 0.00 0.00 0.00 0.00 0.00 0.00 0.00 0.00 0.00 0.00 0.01 0.02 0.00 0.00 0.00 0.00 0.00 0.00 0.00 0.00 0.00 0.00 0.00
0.00 0.00 0.00 0.00 0.00 0.00 0.00 0.00 0.00 0.00 0.00 0.00 0.00 0.00 0.00 0.00 0.00 0.00 0.00 0.00 0.00 0.00 0.00 0.00 0.00 0.00 0.00 0.00 0.00 0.00 0.00 0.00 0.00 0.00 0.00 0.00 0.03 0.04 0.02 0.01 0.00 0.00 0.00 0.00 0.00 0.00 0.00 0.00 0.00
0.00 0.00 0.00 0.00 0.00 0.00 0.00 0.00 0.00 0.00 0.00 0.00 0.00 0.00 0.00 0.00 0.00 0.00 0.00 0.00 0.00 0.00 0.00 0.00 0.00 0.00 0.00 0.00 0.00 0.00 0.00 0.00 0.00 0.00 0.00 0.01 0.04 0.07 0.04 0.03 0.03 0.02 0.00 0.00 0.00 0.00 0.00 0.00 0.00
0.00 0.00 0.00 0.00 0.00 0.00 0.00 0.00 0.00 0.00 0.00 0.00 0.00 0.00 0.00 0.00 0.00 0.00 0.00 0.00 0.00 0.00 0.00 0.00 0.00 0.00 0.00 0.00 0.00 0.00 0.00 0.00 0.00 0.00 0.00 0.00 0.04 0.10 0.06 0.07 0.11 0.06 0.00 0.00 0.00 0.00 0.00 0.00 0.00
0.00 0.00 0.00 0.00 0.00 0.00 0.00 0.00 0.00 0.00 0.00 0.00 0.00 0.00 0.00 0.00 0.00 0.00 0.00 0.00 0.00 0.00 0.00 0.00 0.00 0.00 0.00 0.00 0.00 0.00 0.00 0.00 0.00 0.00 0.00 0.00 0.04 0.08 0.05 0.14 0.11 0.03 0.01 0.01 0.01 0.00 0.00 0.00 0.00
0.00 0.00 0.00 0.00 0.00 0.00 0.00 0.00 0.00 0.00 0.00 0.00 0.00 0.00 0.00 0.00 0.00 0.00 0.00 0.00 0.00 0.00 0.00 0.00 0.00 0.00 0.00 0.00 0.00 0.00 0.00 0.00 0.00 0.00 0.00 0.00 0.04 0.03 0.06 0.09 0.06 0.04 0.00 0.00 0.00 0.00 0.00 0.01 0.03
0.00 0.00 0.00 0.00 0.00 0.00 0.00 0.00 0.00 0.00 0.00 0.00 0.00 0.00 0.00 0.00 0.00 0.00 0.00 0.00 0.00 0.00 0.00 0.00 0.00 0.00 0.00 0.00 0.00 0.00 0.00 0.00 0.00 0.00 0.00 0.00 0.03 0.03 0.03 0.08 0.06 0.04 0.00 0.00 0.00 0.00 0.01 0.02 0.03
0.00 0.00 0.00 0.00 0.00 0.00 0.00 0.00 0.00 0.00 0.00 0.00 0.00 0.00 0.00 0.00 0.00 0.00 0.00 0.00 0.00 0.00 0.00 0.00 0.00 0.00 0.00 0.00 0.00 0.00 0.00 0.00 0.00 0.00 0.00 0.00 0.01 0.05 0.04 0.06 0.05 0.00 0.00 0.00 0.00 0.00 0.01 0.00 0.00
0.00 0.00 0.00 0.00 0.00 0.00 0.00 0.00 0.00 0.00 0.00 0.00 0.00 0.00 0.00 0.00 0.00 0.00 0.00 0.00 0.00 0.00 0.00 0.00 0.00 0.00 0.00 0.00 0.00 0.00 0.00 0.00 0.00 0.00 0.00 0.00 0.00 0.05 0.08 0.01 0.00 0.00 0.00 0.00 0.00 0.00 0.00 0.00 0.00
0.00 0.00 0.00 0.00 0.00 0.00 0.00 0.00 0.00 0.00 0.00 0.00 0.00 0.00 0.00 0.00 0.00 0.00 0.00 0.00 0.00 0.00 0.00 0.00 0.00 0.00 0.00 0.00 0.00 0.00 0.00 0.00 0.00 0.00 0.00 0.00 0.02 0.09 0.04 0.00 0.00 0.00 0.00 0.00 0.00 0.00 0.00 0.00 0.00
0.00 0.00 0.00 0.00 0.00 0.00 0.00 0.00 0.00 0.00 0.00 0.00 0.00 0.00 0.00 0.00 0.00 0.00 0.00 0.00 0.00 0.00 0.00 0.00 0.00 0.00 0.00 0.00 0.00 0.00 0.00 0.00 0.00 0.00 0.04 0.04 0.14 0.03 0.00 0.00 0.00 0.00 0.00 0.00 0.00 0.00 0.00 0.00 0.00
0.00 0.00 0.00 0.00 0.00 0.00 0.00 0.00 0.00 0.00 0.00 0.00 0.00 0.00 0.00 0.00 0.00 0.00 0.00 0.00 0.00 0.00 0.00 0.00 0.00 0.00 0.00 0.00 0.00 0.00 0.00 0.00 0.00 0.01 0.12 0.09 0.06 0.00 0.00 0.00 0.00 0.00 0.00 0.00 0.00 0.00 0.00 0.00 0.00
0.00 0.00 0.00 0.00 0.00 0.00 0.00 0.00 0.00 0.00 0.00 0.00 0.00 0.00 0.00 0.00 0.00 0.00 0.00 0.00 0.00 0.00 0.00 0.00 0.00 0.00 0.00 0.00 0.00 0.00 0.00 0.00 0.02 0.04 0.10 0.01 0.00 0.00 0.00 0.00 0.00 0.00 0.00 0.00 0.00 0.00 0.00 0.00 0.00
0.00 0.00 0.00 0.00 0.00 0.00 0.00 0.00 0.00 0.00 0.00 0.00 0.00 0.00 0.00 0.00 0.00 0.00 0.00 0.00 0.00 0.00 0.00 0.00 0.00 0.00 0.00 0.00 0.00 0.00 0.00 0.00 0.02 0.00 0.00 0.00 0.00 0.00 0.00 0.00 0.00 0.00 0.00 0.00 0.00 0.00 0.00 0.00 0.00
0.00 0.00 0.00 0.00 0.00 0.00 0.00 0.00 0.00 0.00 0.00 0.00 0.00 0.00 0.00 0.00 0.00 0.00 0.00 0.00 0.00 0.00 0.00 0.00 0.00 0.00 0.00 0.00 0.00 0.00 0.00 0.00 0.00 0.00 0.00 0.00 0.00 0.00 0.00 0.00 0.00 0.00 0.00 0.00 0.00 0.00 0.00 0.00 0.00
0.00 0.00 0.00 0.00 0.00 0.00 0.00 0.00 0.00 0.00 0.00 0.00 0.00 0.00 0.00 0.00 0.00 0.00 0.00 0.00 0.00 0.00 0.00 0.00 0.00 0.00 0.00 0.00 0.00 0.00 0.00 0.00 0.00 0.00 0.00 0.00 0.00 0.00 0.00 0.00 0.00 0.00 0.00 0.00 0.00 0.01 0.00 0.00 0.00
0.00 0.00 0.00 0.00 0.00 0.00 0.00 0.00 0.00 0.00 0.00 0.00 0.00 0.00 0.00 0.00 0.00 0.00 0.00 0.00 0.00 0.00 0.00 0.00 0.00 0.00 0.00 0.00 0.00 0.00 0.00 0.00 0.00 0.00 0.00 0.00 0.00 0.00 0.00 0.00 0.00 0.00 0.00 0.00 0.00 0.01 0.01 0.00 0.00
0.00 0.00 0.00 0.00 0.00 0.00 0.00 0.00 0.00 0.00 0.00 0.00 0.00 0.00 0.00 0.00 0.00 0.00 0.00 0.00 0.00 0.00 0.00 0.00 0.00 0.00 0.00 0.00 0.00 0.00 0.00 0.00 0.00 0.00 0.00 0.00 0.00 0.00 0.00 0.00 0.00 0.00 0.00 0.00 0.00 0.01 0.02 0.00 0.00
MSLP
1010.39 1010.84 1011.39 1011.45 1012.32 1012.14 1010.94 1009.29 1007.87 1006.98 1006.10 1004.85 1004.64 1004.44 1004.59 1004.90 1005.54 1005.99 1004.87 1004.97 1005.03 1005.77 1006.81 1007.32 1007.77 1008.07 1008.38 1008.79 1009.38 1009.76 1010.12 1010.18 1010.30 1010.59 1010.85 1011.15 1011.53 1011.74 1011.98 1012.28 1012.58 1012.93 1013.16 1013.36 1013.40 1013.50 1013.62 1013.82 1014.04
1010.20 1010.90 1011.47 1011.52 1011.82 1011.74 1010.22 1008.27 1007.35 1006.13 1005.26 1004.63 1004.57 1004.11 1004.03 1004.31 1004.19 1004.39 1004.74 1005.05 1005.12 1005.63 1006.34 1006.90 1007.48 1007.69 1008.00 1008.52 1009.01 1009.43 1009.71 1009.94 1010.11 1010.33 1010.65 1010.97 1011.38 1011.59 1011.93 1012.20 1012.45 1012.80 1013.16 1013.34 1013.47 1013.60 1013.80 1013.88 1013.93
1010.08 1010.53 1011.48 1011.57 1011.19 1010.67 1009.24 1007.58 1006.62 1005.63 1004.77 1004.72 1004.37 1003.89 1003.67 1003.65 1003.73 1003.91 1004.06 1004.55 1005.34 1005.85 1006.09 1006.62 1007.06 1007.42 1007.98 1008.42 1008.79 1009.26 1009.59 1009.77 1009.96 1010.08 1010.37 1010.81 1011.23 1011.53 1011.85 1012.09 1012.40 1012.67 1013.03 1013.30 1013.47 1013.55 1013.74 1013.87 1013.95
1010.06 1011.01 1011.72 1011.43 1010.63 1009.36 1007.96 1006.86 1006.12 1005.64 1004.12 1003.95 1003.73 1003.72 1003.40 1002.98 1003.24 1003.35 1004.08 1004.86 1005.43 1006.06 1006.25 1006.56 1006.93 1007.28 1007.88 1008.45 1008.70 1008.97 1009.42 1009.74 1009.97 1010.19 1010.47 1010.76 1011.08 1011.38 1011.70 1011.93 1012.24 1012.48 1012.87 1013.15 1013.30 1013.49 1013.67 1013.84 1013.93
1010.44 1011.30 1011.85 1011.31 1010.08 1008.63 1007.28 1006.31 1005.71 1005.38 1004.61 1003.71 1003.50 1003.55 1003.21 1002.94 1003.17 1003.37 1004.16 1005.10 1005.52 1005.91 1006.16 1006.44 1006.63 1006.93 1007.46 1008.05 1008.70 1008.87 1009.23 1009.47 1009.90 1010.18 1010.44 1010.87 1011.07 1011.42 1011.74 1011.93 1012.17 1012.41 1012.68 1012.89 1013.09 1013.28 1013.50 1013.68 1013.88
1010.90 1011.45 1012.03 1010.85 1009.69 1008.31 1006.93 1005.66 1005.30 1005.03 1004.33 1003.53 1003.46 1003.60 1003.19 1003.07 1003.26 1004.00 1004.46 1005.19 1005.66 1006.30 1006.45 1006.67 1006.75 1006.83 1007.27 1007.70 1008.24 1008.62 1008.87 1009.18 1009.62 1009.95 1010.28 1010.74 1011.13 1011.38 1011.53 1011.85 1012.14 1012.44 1012.53 1012.68 1012.84 1013.05 1013.26 1013.47 1013.73
1010.68 1011.58 1011.11 1010.55 1009.22 1008.13 1006.77 1005.34 1005.12 1004.60 1003.84 1003.79 1003.60 1003.49 1003.43 1002.97 1003.18 1004.06 1004.52 1005.05 1005.59 1006.15 1006.62 1006.85 1006.89 1007.03 1007.45 1007.83 1008.09 1008.30 1008.54 1008.93 1009.34 1009.73 1010.05 1010.40 1010.82 1011.23 1011.35 1011.69 1012.06 1012.31 1012.46 1012.61 1012.78 1012.87 1013.02 1013.25 1013.51
1010.49 1010.82 1010.68 1010.08 1009.06 1007.41 1006.07 1005.47 1004.45 1003.85 1003.66 1003.11 1002.98 1003.58 1003.76 1003.07 1003.53 1004.28 1004.94 1005.51 1005.78 1006.01 1006.08 1006.22 1006.63 1006.77 1007.09 1007.43 1007.94 1008.33 1008.46 1008.67 1009.08 1009.42 1009.73 1010.01 1010.51 1010.86 1011.17 1011.61 1011.91 1012.16 1012.34 1012.50 1012.59 1012.67 1012.83 1013.07 1013.31
1010.29 1010.85 1010.37 1009.31 1008.57 1006.74 1005.91 1005.65 1004.33 1003.35 1003.34 1003.13 1002.97 1003.19 1003.09 1003.19 1003.75 1004.54 1005.05 1005.45 1005.81 1006.15 1006.25 1006.53 1006.66 1007.11 1007.11 1007.36 1007.88 1008.18 1008.36 1008.52 1008.78 1009.06 1009.32 1009.70 1010.07 1010.42 1010.92 1011.34 1011.75 1011.93 1012.06 1012.28 1012.42 1012.49 1012.63 1012.85 1013.06
1010.17 1010.11 1009.15 1007.90 1007.41 1006.48 1005.63 1005.67 1004.99 1004.14 1003.59 1003.02 1003.01 1002.52 1002.53 1003.01 1003.87 1004.65 1005.15 1005.07 1005.36 1005.59 1005.51 1005.59 1006.05 1006.36 1006.80 1007.07 1007.37 1007.74 1008.10 1008.23 1008.38 1008.63 1008.88 1009.07 1009.50 1009.89 1010.47 1011.07 1011.46 1011.65 1011.83 1012.00 1012.14 1012.36 1012.50 1012.62 1012.98
1009.34 1008.41 1008.00 1007.04 1006.80 1006.47 1005.94 1005.31 1005.35 1004.41 1003.60 1003.22 1003.07 1002.99 1003.29 1003.40 1003.81 1004.42 1004.77 1004.73 1004.62 1004.26 1004.74 1004.80 1005.09 1005.52 1005.83 1006.49 1006.83 1007.18 1007.51 1007.70 1007.95 1008.19 1008.49 1008.82 1009.27 1009.59 1009.94 1010.64 1011.06 1011.38 1011.57 1011.82 1011.95 1012.20 1012.37 1012.65 1012.86
1008.63 1007.86 1007.38 1006.82 1006.80 1006.60 1006.05 1005.67 1005.36 1004.41 1004.06 1003.95 1003.61 1003.49 1003.76 1003.82 1004.10 1004.25 1004.39 1004.03 1004.20 1004.20 1003.85 1004.09 1004.62 1005.03 1005.39 1005.66 1005.97 1006.31 1006.81 1007.06 1007.30 1007.48 1008.02 1008.45 1008.86 1009.76 1010.18 1010.40 1010.87 1011.20 1011.23 1011.57 1011.86 1012.07 1012.23 1012.49 1012.72
1008.06 1007.60 1007.24 1006.98 1006.77 1006.58 1006.40 1005.63 1005.57 1003.83 1004.35 1004.21 1004.01 1003.55 1003.57 1003.64 1003.65 1003.51 1003.38 1003.42 1003.48 1003.83 1003.27 1003.31 1003.65 1004.00 1004.33 1004.98 1005.39 1005.70 1005.81 1006.03 1006.31 1006.93 1007.41 1008.00 1008.40 1009.04 1009.62 1010.11 1010.49 1010.98 1011.13 1011.21 1011.71 1011.89 1012.12 1012.32 1012.50
1007.44 1007.44 1007.37 1007.14 1006.59 1006.56 1006.38 1005.27 1005.23 1003.75 1004.07 1003.59 1003.34 1003.13 1003.02 1003.09 1003.14 1002.86 1002.93 1002.64 1003.11 1003.14 1002.89 1002.35 1002.72 1002.78 1003.59 1003.88 1004.17 1004.33 1004.88 1005.27 1005.96 1006.21 1006.52 1007.46 1008.02 1008.73 1009.36 1009.78 1010.57 1010.60 1011.16 1011.32 1011.46 1011.93 1012.10 1012.17 1012.30
1007.51 1007.75 1007.66 1007.17 1006.79 1006.47 1006.36 1004.93 1002.74 1003.70 1003.86 1003.37 1002.89 1002.67 1002.56 1002.41 1002.44 1002.42 1001.91 1002.14 1002.03 1001.56 1001.52 1001.65 1001.80 1002.27 1002.65 1002.72 1003.05 1003.55 1003.96 1004.55 1004.96 1005.66 1006.26 1006.18 1006.83 1007.91 1008.96 1009.56 1010.46 1010.80 1011.07 1011.20 1011.39 1011.74 1011.91 1012.17 1012.18
1007.89 1007.91 1007.58 1006.27 1006.75 1006.22 1006.17 1002.17 1002.56 1002.66 1003.09 1002.51 1001.94 1002.32 1002.30 1001.74 1001.54 1001.37 1001.39 1001.53 1001.22 1001.07 1001.03 1000.84 1000.89 1001.29 1001.46 1001.76 1002.01 1002.75 1003.24 1003.77 1004.12 1004.43 1005.07 1005.75 1006.49 1007.32 1008.35 1008.95 1009.38 1009.74 1009.97 1010.56 1011.19 1011.48 1011.77 1011.95 1012.07
1007.94 1007.26 1006.84 1006.42 1005.54 1005.88 1005.44 1000.88 1002.43 1002.45 1002.64 1002.39 1002.21 1001.69 1001.57 1001.24 1001.04 1000.88 1000.70 1000.40 1000.17 999.98 999.98 999.96 1000.29 1000.31 1000.37 1000.74 1001.41 1001.87 1002.56 1003.09 1003.52 1004.26 1004.85 1005.64 1006.40 1006.77 1007.58 1008.14 1008.60 1008.88 1010.01 1010.37 1010.55 1011.15 1011.38 1011.64 1011.83
1007.57 1007.47 1006.64 1006.24 1005.65 1005.51 1004.77 1002.56 1003.42 1002.86 1002.73 1002.26 1001.91 1001.48 1001.08 1000.85 1000.68 1000.22 1000.07 999.66 999.32 999.27 999.29 999.34 999.36 999.55 999.77 1000.35 1001.10 1001.75 1002.12 1002.70 1003.06 1003.71 1004.49 1005.25 1005.81 1006.34 1006.97 1007.67 1008.24 1009.04 1009.88 1010.21 1010.40 1010.77 1011.10 1011.54 1011.78
1007.66 1007.51 1007.22 1006.58 1005.83 1005.72 1004.91 1004.02 1003.62 1003.35 1002.64 1002.20 1001.59 1001.25 1000.71 1000.36 1000.03 999.80 999.51 999.11 998.85 998.86 998.86 998.70 998.94 998.98 999.77 1000.34 1000.83 1001.65 1001.74 1002.43 1002.92 1003.54 1004.31 1004.77 1005.34 1005.79 1006.36 1007.34 1007.81 1008.39 1009.47 1009.75 1010.13 1010.54 1011.17 1011.55 1011.61
1007.76 1007.74 1007.55 1007.11 1006.25 1006.10 1005.52 1004.47 1003.97 1003.53 1002.68 1001.93 1001.36 1000.83 1000.65 1000.33 1000.03 999.49 998.94 998.76 998.72 998.55 998.27 998.12 998.09 998.37 998.91 999.34 1000.08 1000.44 1001.27 1002.23 1002.68 1003.53 1004.11 1004.28 1004.66 1005.37 1006.04 1006.86 1007.85 1008.13 1009.10 1009.75 1010.04 1010.52 1011.01 1011.24 1011.38
1007.70 1007.71 1007.61 1007.48 1006.76 1005.87 1005.87 1003.93 1003.17 1001.91 1001.43 1000.86 1000.42 1000.15 999.83 999.67 999.44 998.76 998.54 998.31 997.99 997.97 997.69 997.55 997.56 997.92 998.63 999.27 999.77 1000.58 1001.26 1002.24 1002.86 1003.32 1003.75 1004.15 1004.52 1005.20 1005.63 1006.18 1007.17 1008.09 1008.77 1009.32 1009.84 1010.19 1010.55 1010.90 1011.23
1007.76 1007.71 1007.67 1007.62 1007.52 1006.97 1006.49 1003.92 1002.60 1001.44 1000.35 1000.00 999.75 999.33 998.70 998.82 998.53 998.11 998.05 998.01 997.50 997.07 996.98 996.79 997.04 997.61 998.13 998.74 999.39 1000.05 1000.51 1001.45 1001.99 1002.72 1003.23 1003.61 1004.41 1005.29 1005.87 1006.13 1006.94 1007.83 1008.44 1009.09 1009.45 1009.79 1010.13 1010.52 1010.85
1007.22 1007.57 1007.98 1008.20 1008.15 1007.86 1006.98 1006.61 1000.20 1000.34 999.65 999.16 998.66 998.23 997.95 997.71 997.90 997.69 997.50 997.28 997.10 997.20 996.86 996.66 996.93 997.37 997.90 998.42 998.99 999.88 1000.71 1001.30 1001.81 1002.47 1003.30 1004.02 1004.81 1005.32 1005.90 1006.23 1006.88 1007.55 1008.25 1008.75 1009.11 1009.45 1009.82 1010.17 1010.42
1006.96 1007.43 1008.04 1008.55 1008.74 1008.15 1006.60 1007.07 1000.11 1000.10 998.71 998.27 998.09 997.58 997.40 997.32 997.38 997.23 997.15 997.29 997.33 997.13 997.04 997.03 997.02 997.47 998.04 998.50 998.98 999.56 1000.39 1001.37 1001.91 1002.68 1003.47 1004.33 1005.03 1005.81 1006.04 1006.25 1006.86 1007.52 1008.00 1008.53 1008.87 1009.15 1009.50 1009.79 1009.98
1007.00 1007.54 1008.67 1009.70 1009.31 1007.25 1005.89 1006.01 1000.25 999.18 998.21 997.99 997.63 997.13 997.05 996.88 997.12 997.01 997.13 997.40 997.45 997.46 997.30 997.18 997.18 997.85 998.28 998.66 999.22 999.69 1000.38 1001.08 1001.75 1002.63 1003.59 1004.23 1004.93 1005.75 1006.03 1006.30 1006.98 1007.43 1007.94 1008.43 1008.61 1008.92 1009.17 1009.46 1009.68
1006.73 1007.36 1007.72 1008.09 1007.90 1006.73 1005.91 1003.61 1000.28 998.67 997.86 997.41 997.20 997.06 996.72 996.65 996.44 996.69 997.11 997.42 997.55 997.59 997.51 997.48 997.60 998.15 998.66 999.32 999.74 1000.08 1000.64 1001.34 1002.27 1002.76 1003.57 1004.36 1005.17 1005.76 1006.14 1006.53 1007.03 1007.59 1008.00 1008.23 1008.44 1008.75 1008.95 1009.17 1009.34
1006.51 1006.90 1007.00 1007.80 1007.36 1006.60 1004.78 1001.96 1000.23 998.13 997.79 997.12 997.24 997.00 996.56 996.00 996.33 997.00 997.34 997.62 997.89 997.84 997.93 998.13 998.17 998.85 999.31 999.85 1000.04 1000.48 1001.05 1001.64 1002.63 1003.49 1004.06 1004.85 1005.46 1005.86 1006.31 1006.81 1007.30 1007.58 1007.82 1008.08 1008.30 1008.48 1008.62 1008.77 1009.02
1006.06 1006.37 1007.14 1007.84 1007.51 1006.51 1003.78 1002.07 1000.21 998.59 998.01 997.98 997.47 997.00 996.16 995.98 996.58 997.05 997.50 997.91 998.29 998.22 998.44 998.70 998.89 999.34 999.84 1000.10 1000.43 1001.03 1001.63 1002.23 1003.02 1003.77 1004.55 1005.15 1005.66 1006.02 1006.51 1006.91 1007.17 1007.42 1007.61 1007.79 1007.98 1008.06 1008.27 1008.50 1008.64
1006.34 1006.53 1006.87 1007.16 1006.96 1005.84 1004.12 1001.50 999.12 998.06 998.40 998.34 997.61 996.71 995.90 996.06 996.59 997.14 997.74 998.12 998.56 998.75 998.97 999.22 999.52 999.90 1000.33 1000.64 1001.13 1001.63 1002.27 1002.83 1003.48 1004.16 1004.80 1005.10 1005.53 1006.04 1006.46 1006.78 1007.02 1007.23 1007.43 1007.51 1007.66 1007.77 1008.05 1008.09 1008.31
1007.06 1006.88 1006.99 1007.31 1006.85 1005.70 1004.77 1002.45 998.54 998.58 998.51 998.32 997.61 997.02 996.51 996.44 996.57 997.32 998.02 998.36 998.87 999.29 999.59 999.77 1000.02 1000.33 1000.92 1001.27 1001.67 1002.23 1002.84 1003.42 1003.99 1004.53 1004.93 1005.25 1005.69 1006.09 1006.43 1006.69 1006.85 1006.98 1007.11 1007.22 1007.34 1007.43 1007.43 1007.74 1007.92
Thickness
5772 5771 5769 5765 5736 5730 5728 5747 5775 5777 5784 5809 5812 5804 5801 5806 5793 5771 5834 5838 5840 5835 5826 5821 5816 5810 5807 5801 5794 5790 5786 5783 5779 5774 5770 5765 5760 5755 5751 5746 5742 5737 5732 5728 5726 5725 5723 5719 5715
5771 5767 5761 5751 5726 5714 5729 5762 5768 5784 5800 5807 5805 5809 5806 5800 5822 5826 5829 5836 5839 5835 5829 5824 5816 5812 5808 5802 5796 5791 5788 5783 5780 5775 5770 5765 5759 5755 5748 5744 5740 5735 5729 5726 5722 5718 5714 5713 5711
5768 5766 5746 5736 5726 5723 5734 5767 5778 5794 5803 5801 5800 5814 5810 5808 5824 5827 5837 5836 5832 5829 5828 5824 5817 5812 5806 5801 5797 5791 5786 5782 5779 5776 5770 5762 5756 5751 5746 5742 5738 5734 5728 5723 5719 5715 5711 5708 5706
5759 5750 5741 5724 5728 5747 5760 5776 5784 5782 5804 5807 5807 5798 5818 5834 5830 5837 5834 5829 5826 5822 5824 5822 5815 5810 5803 5797 5794 5789 5782 5778 5774 5770 5765 5759 5754 5750 5744 5741 5736 5732 5725 5720 5716 5711 5707 5704 5702
5748 5736 5717 5720 5734 5755 5770 5779 5782 5779 5789 5802 5806 5795 5809 5831 5839 5836 5830 5823 5817 5820 5822 5820 5815 5811 5805 5798 5789 5786 5780 5775 5769 5764 5759 5753 5750 5744 5739 5736 5732 5728 5724 5720 5714 5710 5705 5702 5698
5724 5725 5702 5717 5732 5756 5769 5783 5782 5783 5792 5799 5800 5796 5805 5830 5832 5825 5825 5819 5815 5815 5818 5814 5810 5808 5803 5797 5790 5785 5780 5775 5768 5763 5756 5748 5743 5740 5737 5732 5727 5722 5720 5717 5712 5707 5702 5698 5694
5720 5707 5707 5718 5729 5742 5759 5781 5773 5782 5787 5789 5803 5792 5806 5819 5827 5822 5820 5816 5812 5813 5811 5807 5805 5802 5798 5794 5790 5786 5781 5774 5767 5760 5755 5748 5743 5738 5735 5729 5724 5719 5715 5712 5708 5705 5701 5697 5692
5718 5711 5708 5713 5720 5737 5765 5771 5783 5785 5783 5810 5811 5782 5785 5813 5818 5817 5812 5806 5806 5807 5809 5807 5803 5799 5795 5792 5788 5782 5778 5773 5766 5758 5754 5749 5742 5737 5733 5726 5720 5715 5711 5707 5704 5702 5699 5694 5690
5715 5690 5693 5714 5721 5744 5764 5758 5783 5797 5787 5795 5803 5798 5807 5815 5811 5803 5801 5799 5797 5795 5795 5795 5795 5789 5787 5783 5777 5773 5768 5766 5764 5759 5753 5748 5743 5737 5729 5723 5716 5712 5708 5703 5700 5698 5695 5691 5687
5697 5682 5702 5735 5738 5744 5755 5755 5764 5772 5773 5784 5791 5808 5813 5812 5804 5795 5792 5795 5792 5792 5793 5795 5792 5789 5783 5778 5775 5771 5766 5763 5760 5756 5752 5750 5743 5736 5728 5720 5714 5709 5705 5701 5697 5693 5690 5687 5683
5696 5699 5719 5735 5738 5741 5742 5749 5758 5762 5762 5782 5782 5789 5794 5794 5794 5790 5790 5792 5794 5801 5797 5796 5794 5789 5787 5779 5775 5771 5766 5762 5758 5754 5749 5745 5739 5734 5728 5720 5713 5708 5703 5698 5694 5689 5686 5682 5678
5685 5705 5720 5730 5729 5728 5731 5743 5741 5756 5764 5777 5784 5787 5783 5783 5782 5783 5782 5791 5793 5794 5800 5797 5792 5787 5782 5779 5775 5771 5766 5761 5758 5754 5748 5742 5738 5728 5721 5716 5710 5704 5701 5695 5691 5686 5683 5678 5673
5684 5699 5705 5715 5717 5718 5723 5728 5731 5752 5762 5770 5775 5780 5779 5779 5781 5786 5788 5791 5793 5789 5796 5796 5793 5789 5785 5777 5773 5771 5769 5764 5760 5753 5748 5740 5735 5729 5720 5714 5708 5701 5697 5694 5687 5682 5678 5674 5668
5688 5688 5687 5693 5704 5706 5706 5722 5725 5749 5756 5764 5769 5773 5777 5778 5780 5784 5785 5792 5789 5788 5791 5797 5795 5794 5784 5780 5777 5776 5769 5764 5757 5754 5749 5737 5731 5725 5717 5710 5702 5699 5690 5687 5683 5677 5672 5668 5664
5671 5663 5668 5677 5687 5692 5702 5704 5728 5745 5750 5753 5761 5768 5771 5777 5778 5779 5791 5790 5793 5799 5799 5796 5795 5788 5783 5783 5781 5776 5770 5763 5759 5752 5743 5743 5733 5726 5714 5706 5696 5690 5683 5680 5677 5672 5667 5662 5658
5648 5650 5646 5683 5677 5689 5691 5709 5740 5745 5741 5750 5761 5757 5758 5767 5778 5783 5786 5787 5793 5792 5792 5796 5794 5788 5787 5784 5782 5775 5768 5763 5759 5756 5747 5740 5731 5721 5711 5705 5699 5691 5684 5680 5673 5667 5661 5657 5652
5627 5641 5639 5657 5681 5674 5681 5716 5723 5737 5735 5735 5740 5749 5754 5763 5769 5776 5783 5786 5789 5791 5793 5794 5791 5791 5789 5785 5778 5772 5766 5760 5757 5750 5743 5733 5725 5720 5712 5705 5699 5693 5681 5676 5671 5663 5657 5651 5646
5623 5623 5641 5641 5659 5665 5668 5694 5700 5718 5721 5725 5731 5741 5748 5755 5760 5773 5777 5784 5789 5790 5790 5792 5792 5789 5785 5779 5771 5765 5761 5758 5754 5747 5738 5730 5723 5716 5710 5702 5696 5686 5676 5670 5666 5659 5652 5645 5639
5613 5616 5617 5632 5649 5652 5662 5673 5689 5694 5707 5716 5730 5739 5747 5753 5764 5767 5773 5779 5783 5784 5786 5788 5783 5782 5776 5769 5765 5758 5757 5751 5745 5740 5731 5727 5720 5715 5709 5699 5694 5684 5674 5669 5662 5654 5645 5638 5634
5594 5595 5600 5617 5635 5640 5648 5651 5670 5682 5696 5710 5721 5731 5735 5740 5749 5759 5767 5772 5774 5777 5781 5782 5783 5780 5775 5771 5765 5761 5752 5743 5738 5731 5726 5725 5720 5712 5706 5697 5686 5681 5670 5661 5655 5647 5638 5633 5628
5578 5581 5592 5600 5620 5641 5636 5646 5666 5695 5702 5717 5724 5731 5739 5743 5746 5756 5760 5764 5771 5772 5778 5779 5779 5776 5771 5765 5760 5750 5744 5735 5729 5724 5721 5718 5715 5708 5703 5698 5688 5676 5666 5657 5649 5643 5636 5629 5622
5553 5578 5590 5595 5602 5600 5627 5618 5662 5692 5703 5713 5721 5729 5742 5736 5745 5754 5756 5759 5768 5773 5774 5779 5777 5771 5766 5760 5752 5747 5741 5733 5729 5722 5719 5717 5709 5701 5696 5692 5683 5671 5662 5652 5646 5641 5634 5627 5621
5554 5569 5576 5579 5585 5594 5608 5591 5688 5694 5693 5706 5722 5733 5736 5740 5741 5748 5755 5762 5764 5765 5768 5772 5769 5765 5759 5755 5750 5742 5734 5729 5726 5720 5713 5707 5700 5694 5690 5685 5676 5666 5657 5649 5645 5638 5632 5625 5619
5554 5555 5560 5565 5567 5559 5610 5595 5672 5678 5701 5713 5719 5724 5733 5738 5742 5748 5753 5755 5755 5761 5762 5762 5762 5757 5753 5750 5745 5739 5732 5724 5720 5713 5706 5698 5692 5684 5682 5678 5669 5660 5653 5646 5640 5635 5630 5624 5618
5534 5531 5522 5525 5533 5580 5613 5598 5675 5687 5696 5703 5715 5724 5729 5736 5740 5744 5749 5747 5751 5753 5755 5755 5754 5748 5745 5743 5738 5735 5728 5722 5716 5708 5698 5694 5687 5679 5675 5671 5662 5655 5648 5642 5638 5633 5630 5623 5616
5524 5528 5519 5543 5556 5585 5610 5612 5652 5691 5702 5708 5714 5718 5727 5734 5742 5746 5744 5744 5746 5747 5747 5747 5745 5741 5737 5732 5728 5725 5721 5715 5706 5702 5695 5686 5678 5673 5668 5662 5655 5648 5642 5638 5635 5632 5627 5622 5617
5523 5522 5548 5541 5562 5574 5595 5635 5661 5692 5698 5707 5708 5714 5723 5735 5738 5736 5738 5740 5738 5738 5738 5737 5736 5732 5728 5723 5721 5717 5712 5707 5697 5688 5683 5676 5670 5665 5659 5653 5647 5643 5640 5637 5634 5630 5626 5622 5617
5526 5536 5527 5518 5549 5567 5602 5621 5633 5667 5683 5689 5699 5712 5726 5733 5730 5733 5734 5731 5729 5731 5729 5727 5727 5723 5719 5716 5714 5708 5703 5697 5689 5682 5674 5668 5662 5659 5653 5648 5644 5641 5638 5636 5633 5630 5625 5621 5618
5521 5517 5527 5532 5541 5569 5590 5611 5646 5670 5679 5680 5698 5718 5723 5725 5730 5729 5727 5726 5723 5722 5721 5719 5718 5715 5711 5708 5704 5699 5692 5687 5680 5673 5667 5664 5660 5654 5649 5646 5642 5640 5637 5635 5632 5629 5624 5622 5620
5510 5518 5521 5521 5549 5564 5570 5594 5653 5665 5666 5677 5693 5706 5713 5723 5728 5725 5721 5720 5717 5714 5713 5712 5710 5708 5703 5700 5696 5690 5684 5678 5672 5666 5663 5660 5655 5651 5647 5643 5642 5640 5637 5635 5632 5629 5628 5624 5622